Voltar ao catálogo

CAS500-3

AtivoCiênciaSSO
NORAD 66655·PAYLOAD·🇰🇷 South Korea

Lançado Nov 26, 2025 de Naro Space Center

Loading…

Próximas Passagens (próximas 24 horas)

TLE

AtualizadoSource: Space-Track

Época: Sep 14, 2026, 05:28 UTC

1 66655U 25274F   26257.22846318  .00000934  00000-0  10676-3 0  9993
2 66655  97.7426 183.2395 0003197 317.7924  42.3046 14.88322521 43393

Acompanhe CAS500-3 em tempo real com AllMySat

Download on the App Store